Location: Three Guys Observatory
(38.6418°N, 87.1521°W)
Time: 19:07:58
(UTC-05:00)

ISS - Visible Passes

Search period start: 26 November 2014 00:00
Search period end: 06 December 2014 00:00
Orbit: 407 x 417 km, 51.6° (Epoch: 26 November)

Date Brightness Start Highest point End Pass type
(mag) Time Alt. Az. Time Alt. Az. Time Alt. Az.
26 Nov -2.0 06:02:30 29° N 06:03:12 32° NNE 06:06:12 10° E visible
27 Nov -0.3 05:14:56 15° ENE 05:14:56 15° ENE 05:15:52 10° ENE visible
27 Nov -2.9 06:47:46 17° WNW 06:50:05 50° SW 06:53:17 10° SSE visible
28 Nov -3.4 06:00:15 82° NNE 06:00:17 83° NE 06:03:34 10° SE visible
29 Nov -0.2 05:12:45 16° ESE 05:12:45 16° ESE 05:13:33 10° ESE visible
29 Nov -1.4 06:45:35 15° WSW 06:46:46 17° SW 06:49:02 10° S visible
30 Nov -1.7 05:58:09 25° S 05:58:09 25° S 05:59:59 10° SSE visible
05 Dec 0.0 20:00:28 10° SW 20:00:31 10° SW 20:00:31 10° SW visible
